Location: Abundant Grace Fellowship
(35.0349°N, 90.0924°W)
Time: 22:14:30
(UTC+00:00)

Cosmos 2082 Rocket - Pass Details

Date: 18 January 2026
Orbit: 831 x 853 km, 71.0° (Epoch: 13 February)

Event Time Altitude Azimuth Distance (km) Brightness Sun altitude
Rises 02:00:10 0° 202° (SSW) 3,358 5.6 -33.7°
Reaches altitude 10° 02:02:35 10° 203° (SSW) 2,429 4.8 -34.1°
Enters shadow 02:04:24 22° 205° (SSW) 1,753 4.0 -34.5°
